Weather reports worldwide

Advertisment
Strathallan, United Kingdom (3144): temperature & dewpoint: 14.10.2020 15:00:00 - 20.10.2020 15:00:00 (BST)Strathallan, United Kingdom (3144): temperature -20cm & temperature -100cm: 14.10.2020 15:00:00 - 20.10.2020 15:00:00 (BST)Strathallan, United Kingdom (3144): wind speed: 14.10.2020 15:00:00 - 20.10.2020 15:00:00 (BST)Strathallan, United Kingdom (3144): wind direction: 14.10.2020 15:00:00 - 20.10.2020 15:00:00 (BST)Strathallan, United Kingdom (3144): reduced air pressure: 14.10.2020 15:00:00 - 20.10.2020 15:00:00 (BST)Strathallan, United Kingdom (3144): visibility: 14.10.2020 15:00:00 - 20.10.2020 15:00:00 (BST)Strathallan, United Kingdom (3144): precipitation: 14.10.2020 15:00:00 - 20.10.2020 15:00:00 (BST)
Date & Time tt [°C] td [°C] tt -20cm [°C] tt -100cm [°C] ff [km/h] ff [kn] dd ppp [hPa] vv [km] rr [mm]
20.10.2020 15:00:00 10,8 10,1 - - 9 5 NE 993,9 2,7 -
20.10.2020 14:00:00 10,8 9,8 - - 8 4 NE 994,1 11 0,0
20.10.2020 13:00:00 10,3 9,3 - - 8 4 NE 994,4 10 0,0
20.10.2020 12:00:00 10,3 9,6 - - 9 5 NE 994,6 11 0,0
20.10.2020 11:00:00 9,5 9,0 - - 5 3 NE 994,7 8 0,0
20.10.2020 10:00:00 9,3 8,9 10,7 11,7 5 3 ENE 994,4 7 0,4
20.10.2020 09:00:00 9,3 8,7 - - 8 4 NE 994,5 8 0,0
20.10.2020 08:00:00 9,1 8,6 - - 5 3 NNE 994,6 11 0,0
20.10.2020 07:00:00 9,3 8,6 - - 8 4 NE 994,9 16 0,0
20.10.2020 06:00:00 9,6 9,2 - - 5 3 E 995,6 12 0,4
20.10.2020 05:00:00 9,9 9,4 - - 8 4 ENE 996,1 14 0,6
20.10.2020 04:00:00 9,8 9,4 - - 2 1 ENE 997,2 22 0,4
20.10.2020 03:00:00 10,0 9,3 - - 5 3 NNE 997,7 11 1,4
20.10.2020 02:00:00 10,9 9,4 - - 5 3 S 998,8 6 0,8
20.10.2020 01:00:00 10,1 9,4 - - 4 2 N 999,1 4,3 0,0
20.10.2020 00:00:00 10,7 9,7 - - 8 4 NNW 999,3 28 0,2
19.10.2020 23:00:00 10,7 9,6 - - 8 4 SW 999,9 17 0,2
19.10.2020 22:00:00 10,5 9,4 - - 5 3 W 1000,5 12 0,2
19.10.2020 21:00:00 10,6 8,8 - - 5 3 SW 1000,8 22 0,6
19.10.2020 20:00:00 10,4 9,0 - - 4 2 SE 1001,6 13 1,6
19.10.2020 19:00:00 10,1 8,8 - - 8 4 WSW 1002,6 8 2,2
19.10.2020 18:00:00 10,8 9,1 - - 11 6 SSW 1002,9 10 1,8
19.10.2020 17:00:00 11,0 9,5 - - 8 4 SSW 1003,6 11 1,6
19.10.2020 16:00:00 11,3 9,9 - - 11 6 SSW 1004,5 10 2,0
19.10.2020 15:00:00 11,9 10,3 - - 15 8 SSW 1005,4 10 2,2
19.10.2020 14:00:00 12,3 10,5 - - 11 6 SSW 1005,8 30 0,2
19.10.2020 13:00:00 11,9 10,4 - - 11 6 SW 1006,8 8 0,6
19.10.2020 12:00:00 12,1 10,2 - - 16 9 SSW 1007,0 8 0,0
19.10.2020 11:00:00 11,8 10,2 - - 21 11 SW 1007,1 40 0,4
19.10.2020 10:00:00 11,6 10,3 10,5 11,7 22 12 SW 1007,6 7 1,6
19.10.2020 09:00:00 11,3 10,2 - - 15 8 SW 1007,9 40 1,6
19.10.2020 08:00:00 11,3 9,8 - - 15 8 SSW 1008,5 20 0,4
19.10.2020 07:00:00 11,0 9,8 - - 8 4 SW 1009,1 45 0,8
19.10.2020 06:00:00 10,8 9,6 - - 9 5 SW 1010,3 12 1,0
19.10.2020 05:00:00 10,5 9,3 - - 5 3 SSW 1011,0 19 0,0
19.10.2020 04:00:00 10,2 9,3 - - 9 5 WSW 1011,9 10 0,2
19.10.2020 03:00:00 8,5 8,0 - - 5 3 NNW 1013,1 9 0,0
19.10.2020 02:00:00 8,5 7,9 - - 2 1 WNW 1014,0 4,8 0,0
19.10.2020 01:00:00 8,6 8,0 - - 4 2 N 1014,8 18 0,0
19.10.2020 00:00:00 7,7 7,4 - - 9 5 NNW 1015,2 10 0,0
18.10.2020 23:00:00 8,1 7,6 - - 5 3 NE 1015,9 10 0,2
18.10.2020 22:00:00 8,2 7,3 - - 0 0 N 1016,6 19 0,0
18.10.2020 21:00:00 8,0 7,5 - - 5 3 ENE 1017,1 10 0,0
18.10.2020 20:00:00 8,2 7,5 - - 4 2 ENE 1018,0 20 0,0
18.10.2020 19:00:00 8,3 7,4 - - 4 2 S 1018,5 13 0,0
18.10.2020 18:00:00 8,6 7,3 - - 5 3 WSW 1018,7 6 0,0
18.10.2020 17:00:00 9,0 6,9 - - 11 6 WSW 1019,2 50 0,0
18.10.2020 16:00:00 9,2 6,7 - - 11 6 WSW 1020,0 45 0,0
18.10.2020 15:00:00 9,1 6,5 - - 8 4 SW 1020,9 50 0,0
18.10.2020 14:00:00 8,6 7,1 - - 2 1 NW 1021,9 30 0,0
18.10.2020 13:00:00 7,0 6,0 - - 5 3 E 1022,9 9 0,0
18.10.2020 12:00:00 7,0 5,6 - - 4 2 NNE 1023,6 45 0,0
18.10.2020 11:00:00 6,6 5,5 - - 2 1 E 1024,1 40 0,0
18.10.2020 10:00:00 6,4 5,6 10,7 11,9 4 2 ENE 1024,6 35 0,0
18.10.2020 09:00:00 6,3 5,7 - - 4 2 ENE 1024,8 50 0,0
18.10.2020 08:00:00 6,3 5,7 - - 4 2 E 1024,7 50 0,0
18.10.2020 07:00:00 6,4 5,5 - - 0 0 N 1024,9 15 0,0
18.10.2020 06:00:00 6,5 5,3 - - 4 2 NW 1025,2 35 0,0
18.10.2020 05:00:00 6,8 5,4 - - 2 1 E 1025,2 14 0,0
18.10.2020 04:00:00 7,0 6,2 - - 2 1 WSW 1025,9 50 0,0
18.10.2020 03:00:00 7,1 6,3 - - 0 0 N 1026,4 45 0,0
18.10.2020 02:00:00 7,3 6,2 - - 0 0 N 1026,6 50 0,0
18.10.2020 01:00:00 7,7 6,0 - - 2 1 E 1026,5 50 0,0
18.10.2020 00:00:00 7,9 5,9 - - 2 1 S 1026,5 50 0,0
17.10.2020 23:00:00 8,2 6,1 - - 4 2 SE 1026,5 50 0,0
17.10.2020 22:00:00 8,6 6,0 - - 8 4 E 1026,7 50 0,0
17.10.2020 21:00:00 8,9 6,3 - - 13 7 E 1026,4 50 0,0
17.10.2020 20:00:00 9,2 7,3 - - 4 2 N 1026,1 50 0,0
17.10.2020 19:00:00 9,6 7,1 - - 4 2 WSW 1026,0 50 0,0
17.10.2020 18:00:00 10,8 6,6 - - 2 1 NE 1025,7 50 0,0
17.10.2020 17:00:00 11,2 5,7 - - 5 3 ESE 1025,7 50 0,0
17.10.2020 16:00:00 11,6 5,4 - - 4 2 SW 1026,1 30 0,0
17.10.2020 15:00:00 12,6 5,3 - - 5 3 SSE 1026,4 50 0,0
17.10.2020 14:00:00 11,7 4,3 - - 5 3 ENE 1026,8 50 0,0
17.10.2020 13:00:00 11,6 5,4 - - 4 2 S 1027,1 30 0,0
17.10.2020 12:00:00 9,2 4,8 - - 5 3 NNW 1027,3 45 0,0
17.10.2020 11:00:00 7,8 4,8 - - 5 3 WSW 1027,4 50 0,0
17.10.2020 10:00:00 6,4 4,5 10,2 12,0 5 3 WNW 1027,5 50 0,0
17.10.2020 09:00:00 5,3 4,4 - - 4 2 W 1027,6 50 0,0
17.10.2020 08:00:00 5,4 4,4 - - 4 2 W 1027,5 50 0,0
17.10.2020 07:00:00 6,0 4,7 - - 0 0 N 1027,3 50 0,0
17.10.2020 06:00:00 6,4 4,9 - - 4 2 NW 1027,4 50 0,0
17.10.2020 05:00:00 7,4 5,5 - - 2 1 ENE 1027,4 50 0,0
17.10.2020 04:00:00 7,6 5,7 - - 2 1 NE 1027,8 50 0,0
17.10.2020 03:00:00 7,6 6,6 - - 4 2 N 1028,1 45 0,0
17.10.2020 02:00:00 7,8 6,7 - - 2 1 NNW 1028,2 45 0,0
17.10.2020 01:00:00 7,8 6,7 - - 0 0 N 1028,4 45 0,0
17.10.2020 00:00:00 8,4 6,1 - - 4 2 ENE 1028,6 50 0,0
16.10.2020 23:00:00 8,6 6,6 - - 5 3 NE 1028,9 50 0,0
16.10.2020 22:00:00 8,1 7,2 - - 0 0 N 1029,1 45 0,0
16.10.2020 21:00:00 8,3 7,2 - - 0 0 N 1029,0 45 0,0
16.10.2020 20:00:00 8,8 6,9 - - 4 2 NNE 1028,9 50 0,0
16.10.2020 19:00:00 9,4 6,6 - - 4 2 NE 1028,8 50 0,0
16.10.2020 18:00:00 9,9 7,4 - - 2 1 WNW 1028,7 50 0,0
16.10.2020 17:00:00 10,5 6,9 - - 2 1 SSE 1028,8 50 0,0
16.10.2020 16:00:00 10,6 6,7 - - 2 1 ESE 1029,1 45 0,0
16.10.2020 15:00:00 10,0 6,2 - - 2 1 SSE 1029,5 50 0,0
16.10.2020 14:00:00 9,6 6,2 - - 2 1 S 1029,9 50 0,0
16.10.2020 13:00:00 9,0 6,3 - - 2 1 NNW 1030,4 50 0,0
16.10.2020 12:00:00 8,2 6,2 - - 4 2 SW 1030,6 50 0,0
16.10.2020 11:00:00 7,3 6,2 - - 2 1 SW 1030,9 50 0,0
16.10.2020 10:00:00 6,7 5,7 10,0 12,0 4 2 W 1031,1 7 0,0
16.10.2020 09:00:00 6,0 5,4 - - 4 2 SSE 1030,7 50 0,0
16.10.2020 08:00:00 5,5 4,9 - - 0 0 N 1030,4 50 0,0
16.10.2020 07:00:00 5,7 4,9 - - 2 1 NNE 1030,3 50 0,0
16.10.2020 06:00:00 5,7 4,8 - - 2 1 W 1030,3 50 0,0
16.10.2020 05:00:00 5,7 4,7 - - 4 2 SW 1030,5 45 0,0
16.10.2020 04:00:00 5,8 4,6 - - 4 2 SW 1030,9 50 0,0
16.10.2020 03:00:00 6,0 4,5 - - 4 2 WSW 1031,4 50 0,0
16.10.2020 02:00:00 6,5 4,5 - - 2 1 SE 1031,6 45 0,0
16.10.2020 01:00:00 6,1 5,0 - - 4 2 SW 1031,6 50 0,0
16.10.2020 00:00:00 6,3 4,9 - - 4 2 W 1031,6 50 0,0
15.10.2020 23:00:00 6,6 4,8 - - 4 2 SW 1031,7 50 0,0
15.10.2020 22:00:00 7,5 3,7 - - 0 0 N 1031,6 50 0,0
15.10.2020 21:00:00 7,7 3,9 - - 5 3 NNE 1031,5 45 0,0
15.10.2020 20:00:00 7,2 5,4 - - 2 1 W 1031,5 50 0,0
15.10.2020 19:00:00 7,7 5,1 - - 4 2 NNW 1031,3 50 0,0
15.10.2020 18:00:00 8,7 4,0 - - 4 2 ENE 1031,2 50 0,0
15.10.2020 17:00:00 9,6 3,5 - - 4 2 NE 1031,2 50 0,0
15.10.2020 16:00:00 10,2 2,7 - - 5 3 NNE 1031,4 50 0,0
15.10.2020 15:00:00 10,0 3,3 - - 9 5 NE 1031,5 50 0,0
15.10.2020 14:00:00 10,1 4,2 - - 8 4 E 1031,7 50 0,0
15.10.2020 13:00:00 9,3 4,8 - - 4 2 ENE 1032,2 50 0,0
15.10.2020 12:00:00 8,1 3,5 - - 4 2 ESE 1032,3 45 0,0
15.10.2020 11:00:00 7,2 5,3 - - 2 1 SW 1032,4 40 0,0
15.10.2020 10:00:00 3,2 3,1 - - 2 1 W 1032,4 40 0,0
15.10.2020 09:00:00 0,4 0,2 - - 4 2 WSW 1032,4 21 0,0
15.10.2020 08:00:00 -0,4 -0,6 - - 4 2 SW 1032,0 27 0,0
15.10.2020 07:00:00 -0,2 -0,3 - - 5 3 W 1031,9 40 0,0
15.10.2020 06:00:00 -0,2 -0,5 - - 8 4 WSW 1031,7 30 0,0
15.10.2020 05:00:00 0,8 0,6 - - 4 2 W 1031,6 22 0,0
15.10.2020 04:00:00 0,6 0,3 - - 5 3 WSW 1031,8 14 0,0
15.10.2020 03:00:00 1,4 1,0 - - 4 2 WSW 1032,1 14 0,0
15.10.2020 02:00:00 2,7 2,3 - - 5 3 SW 1032,0 20 0,0
15.10.2020 01:00:00 4,7 4,1 - - 2 1 SSW 1031,9 21 0,0
15.10.2020 00:00:00 6,8 5,5 - - 2 1 E 1032,0 27 0,0
14.10.2020 23:00:00 8,0 6,0 - - 4 2 E 1032,1 45 0,0
14.10.2020 22:00:00 8,4 6,3 - - 5 3 E 1032,1 40 0,0
14.10.2020 21:00:00 9,0 7,7 - - 5 3 ENE 1032,1 30 0,0
14.10.2020 20:00:00 9,4 7,8 - - 4 2 NE 1031,8 35 0,0
14.10.2020 19:00:00 9,8 7,5 - - 2 1 SSW 1031,7 45 0,0
14.10.2020 18:00:00 11,0 7,2 - - 5 3 ENE 1031,4 50 0,0
14.10.2020 17:00:00 11,8 6,4 - - 9 5 ENE 1031,3 50 0,0
14.10.2020 16:00:00 12,2 6,8 - - 11 6 ENE 1031,4 50 0,0
14.10.2020 15:00:00 12,6 7,1 - - 15 8 ENE 1031,2 50 0,0

tt = temperature
td = dewpoint
tt -20cm = temperature -20cm
tt -100cm = temperature -100cm
ff = wind speed
dd = wind direction
ppp = reduced air pressure
vv = visibility
rr = precipitation

Next stations